Location: Burzi?i
(45.0869°N, 16.0577°E)
Time: 10:51:53
(UTC+00:00)

Cosmos 1892 - Pass Details

Date: 29 October 2020
Orbit: 504 x 523 km, 82.5° (Epoch: 28 November)

Event Time Altitude Azimuth Distance (km) Brightness Sun altitude
Rises 16:54:40 0° 354° (N) 2,666 6.3 -12.4°
Reaches altitude 10° 16:56:51 10° 358° (N) 1,773 5.4 -12.7°
Maximum altitude 17:00:43 62° 80° (E) 597 2.7 -13.4°
Drops below altitude 10° 17:04:32 10° 161° (SSE) 1,758 5.3 -14.1°
Sets 17:06:41 0° 165° (SSE) 2,641 6.2 -14.5°
